Regional Weather Roundup
Issued by NWS

Home | Current Version | Previous Version | Graphics & Text | Print | Product List | Glossary On
Versions: 1 2 3 4 5 6 7 8 9 10 11 12 13 14 15 16 17 18 19 20 21 22 23 24 25 26 27 28 29 30 31 32 33 34 35 36 37 38 39 40 41 42 43 44 45 46 47 48 49 50
000
ASUS45 KBOU 231107
RWRCO

WEATHER ROUNDUP FOR COLORADO
NATIONAL WEATHER SERVICE DENVER/BOULDER CO
400 AM MST SUN NOV 23 2014

NOTE: "FAIR" INDICATES FEW OR NO CLOUDS BELOW 12000 FEET WITH NO
SIGNIFICANT WEATHER AND/OR OBSTRUCTIONS TO VISIBILITY.

COZ001>005-013-030-031-231200-
...NORTHWEST COLORADO...

CITY           SKY/WX    TMP DP  RH WIND       PRES   REMARKS
CRAIG          CLOUDY    28  22  78 W5        29.83S WCI  23
HAYDEN         CLOUDY    25  21  86 W10       29.81S WCI  15
MEEKER         MOCLDY    24  18  77 CALM      29.83R
MOUNT WERNER   NOT AVBL
STEAMBOAT SPGS CLOUDY    26  24  94 CALM      29.80R
WALDEN         CLOUDY    23  19  86 NW7       29.75S WCI  15
$$

COZ006>008-011-231200-
...WEST CENTRAL VALLEYS...

CITY           SKY/WX    TMP DP  RH WIND       PRES   REMARKS
GRAND JUNCTION PTCLDY    32  31  96 VRB3      29.84R
MONTROSE       CLOUDY    35  32  88 NW3       29.85R
EAGLE          CLOUDY    30  30 100 CALM      29.79S
RIFLE          LGT SNOW  31  30  96 W13       29.84S FOG     WCI  21
DELTA          CLOUDY    38  33  83 W10       29.80F
NUCLA          CLOUDY    36  32  87 W5        29.88S
$$

COZ017>023-064>068-231200-
...SOUTHWEST COLORADO...

CITY           SKY/WX    TMP DP  RH WIND       PRES   REMARKS
DURANGO        CLOUDY    34  29  82 W14G24    29.75F WCI  25
CORTEZ         CLOUDY    37  28  70 N8        29.83F
PAGOSA SPRINGS CLOUDY    29  29  99 CALM      29.76S
TELLURIDE      LGT SNOW  27  25  92 W5        29.84S WCI  22
WOLF CREEK PAS HVY SNOW  18  18 100 MISG      29.76S VSB<1/4
$$

COZ009-010-012-014-032>034-037-058>063-231200-
...CENTRAL COLORADO...

CITY           SKY/WX    TMP DP  RH WIND       PRES   REMARKS
ASPEN          LGT SNOW  28  25  88 N6        29.73F FOG     WCI  22
BUENA VISTA    CLOUDY    30  25  80 NW17G23   29.70R WCI  18
COPPER MTN     CLOUDY    19  14  79 W22G29    29.71F WCI   3
BERTHOUD PASS  LGT SNOW   9   5  85 NW24G36   29.70R VSB 3/4 WCI -12
COTTONWOOD PAS LGT SNOW  28  21  74 W16G25    29.70S WCI  17
GUNNISON       CLOUDY    30  23  74 SW12      29.76F WCI  21
KREMMLING      CLOUDY    28  21  74 CALM      29.77S
LEADVILLE      SNOW      20  18  92 N9        29.70S VSB 1/2 WCI   9
MONARCH PASS   CLOUDY    18  14  86 MISG      29.80F
SALIDA         CLOUDY    34  30  86 NW14G20   29.78R WCI  24
SUNLIGHT       CLOUDY    19  18  93 N10G22    29.78R WCI   8
WILKERSON PASS CLOUDY    19  12  73 N14G25    29.71S WCI   6
$$

COZ069>075-231200-
...SAN LUIS VALLEY/SANGRE DE CRISTO MOUNTAINS...

CITY           SKY/WX    TMP DP  RH WIND       PRES   REMARKS
ALAMOSA        PTCLDY    17  13  84 N8        29.70S WCI   7
LA VETA PASS   PTCLDY    27  19  74 S14G25    29.68S WCI  15
SAGUACHE       MIX PCPN  32  28  86 NW13      29.72R WCI  22
$$

COZ035-036-038>040-231200-
...NORTHERN COLORADO FRONT RANGE...

CITY           SKY/WX    TMP DP  RH WIND       PRES   REMARKS
DENVER INTL AP CLOUDY    38  21  50 N21       29.65R
DMNS CITY PARK   N/A     36  22  57 NE9G17    29.69R
AURORA         MOCLDY    36  26  68 NE13G18   29.68R
FRONT RANGE AP CLOUDY    39  25  56 N13       29.66S
ERIE MUNI ARPT MOCLDY    37  24  61 N16G24    29.65R
BOULDER MUN AP MOCLDY    36  27  69 CALM      29.65R
CENTENNIAL     FLURRIES  34  30  85 E10       29.67R WCI  26
BROOMFIELD     MOCLDY    36  27  69 NE12G17   29.67R
FORT COLLINS   CLOUDY    37  21  52 NW26G32   29.69R
LONGMONT       CLOUDY    39  27  62 N13       29.66R
$$

COZ041-046-047-076>085-087-088-231200-
...PIKES PEAK/PALMER DIVIDE AND SOUTHERN FOOTHILLS...

CITY           SKY/WX    TMP DP  RH WIND       PRES   REMARKS
COLO. SPRINGS  MOCLDY    38  28  67 N26G33    29.64R
A. F. ACADEMY  MIX PCPN  36  28  73 N9        29.65R
ELLICOTT       NOT AVBL
FALCON         NOT AVBL
FORT CARSON    MOCLDY    42  26  53 N20       29.63R
LIMON          LGT SNOW  36  27  69 N31G37    29.66R
MONUMENT HILL  LGT SNOW  30  30 100 NE15G23   29.66R VSB 3/4 WCI  19
TRINIDAD       MOCLDY    42  23  46 NW8       29.57R
$$

COZ042>045-048>051-090-091-231200-
...NORTHEAST COLORADO...

CITY           SKY/WX    TMP DP  RH WIND       PRES   REMARKS
GREELEY ARPT   CLOUDY    37  18  44 N17       29.68R
AKRON          CLOUDY    37  24  59 N25G36    29.65R
BURLINGTON     MOCLDY    45  28  51 N25G35    29.54R
WRAY           CLOUDY    44  29  55 N16G31    29.61R
STERLING       CLOUDY    41  28  60 N13       29.66R
HOLYOKE        CLOUDY    43  27  52 NW23      29.62R
FORT MORGAN    CLOUDY    37  25  61 N17G23    29.68S
$$

COZ086-089-092>099-231200-
...SOUTHEAST COLORADO...

CITY           SKY/WX    TMP DP  RH WIND       PRES   REMARKS
PUEBLO         MOCLDY    49  24  37 N15       29.58R
LA JUNTA       MOCLDY    47  26  44 N13       29.56R
LAMAR          CLOUDY    48  26  42 NW15G23   29.50R
SPRINGFIELD      N/A     42  24  49 NW17G24   29.48R
$$


USA.gov is the U.S. government's official web portal to all federal, state and local government web resources and services.